SCP
1 1 1 1 1 1 1 1 1 1 1 1 0 0 0 0 0 0 0 0 0 0 0 0 0 0 0 0 0 0 0 0 0 0 0 0 0 0 0 0 0 0 0
1 1 1 1 1 1 1 1 1 1 1 1 1 0 0 0 0 0 0 0 0 0 0 0 0 0 0 0 0 0 0 0 0 0 0 0 0 0 0 0 0 0 0
0 1 0 0 0 1 1 1 1 1 2 1 1 0 0 0 0 0 0 0 0 0 0 0 0 0 0 0 0 0 0 0 0 0 0 0 0 0 0 0 0 0 0
1 0 0 0 0 0 0 0 0 1 1 2 1 1 0 0 0 0 0 0 0 0 0 0 0 0 0 0 0 0 0 0 0 0 0 0 0 0 0 0 0 0 0
1 0 0 0 0 0 0 0 1 1 1 2 1 1 0 0 0 0 0 0 0 0 0 0 0 0 0 0 0 0 0 0 0 0 0 0 0 0 0 0 0 0 0
0 0 0 0 0 0 0 1 1 1 1 1 2 1 1 0 0 0 0 0 0 0 0 0 0 0 0 0 0 0 0 0 0 0 0 0 0 0 0 0 0 0 0
0 0 0 0 0 0 0 1 1 1 1 1 1 1 1 0 0 0 0 0 0 0 0 0 0 0 0 0 0 0 0 0 0 0 0 0 0 0 0 0 0 0 0
0 0 0 0 0 0 0 0 1 1 1 1 1 1 1 0 0 0 0 0 0 0 0 0 0 0 0 0 0 0 0 0 0 0 0 0 0 0 0 0 0 0 0
0 0 0 0 0 0 0 0 1 1 1 1 1 1 1 1 0 0 0 0 0 0 0 0 0 0 0 0 0 0 0 0 0 0 0 0 0 0 0 0 0 0 0
0 0 0 0 0 0 0 0 0 1 1 1 1 1 1 1 1 0 0 0 0 0 0 0 0 0 0 0 0 0 0 0 0 0 0 0 0 0 0 0 0 0 0
0 0 0 0 0 0 0 0 0 1 1 1 1 1 1 1 1 0 0 0 0 0 0 0 0 0 0 0 0 0 0 0 0 0 0 0 0 0 0 0 0 0 0
0 0 0 0 0 0 0 0 0 1 1 1 1 1 1 1 0 0 0 0 0 0 0 0 0 0 0 0 0 0 0 0 0 0 0 0 0 0 0 0 0 0 0
0 0 0 0 0 0 0 0 0 0 0 0 1 1 1 1 0 0 0 0 0 0 0 0 0 0 0 0 0 0 0 0 0 0 0 0 0 0 0 0 0 0 0
0 0 0 0 0 0 0 0 0 0 0 0 0 0 1 1 0 0 0 0 0 0 0 0 0 0 0 0 0 0 0 0 0 0 0 0 0 0 0 0 0 0 0
0 0 0 0 0 0 0 0 0 0 0 0 0 0 0 0 0 0 0 0 0 0 0 0 0 0 0 0 0 0 0 0 0 0 0 0 0 0 0 0 0 0 0
0 0 0 0 0 0 0 0 0 0 0 0 0 0 0 0 0 0 0 0 0 0 0 0 0 0 0 0 0 0 0 0 0 0 0 0 0 0 0 0 0 0 0
0 0 0 0 0 0 0 0 0 0 0 0 0 0 0 0 0 0 0 0 0 0 0 0 0 0 0 0 0 0 0 0 0 0 0 0 0 0 0 0 0 0 0
0 0 0 0 0 0 0 0 0 0 0 0 0 0 0 0 0 0 0 0 0 0 0 0 0 0 0 0 0 0 0 0 0 0 0 0 0 0 0 0 0 0 0
0 0 0 0 0 0 0 0 0 0 0 0 0 0 0 0 0 0 0 0 0 0 0 0 0 0 0 0 0 0 0 0 0 0 0 0 0 0 0 0 0 0 0
0 0 0 0 0 0 0 0 0 1 1 1 0 0 0 0 0 0 0 0 0 0 0 0 0 0 0 0 0 0 0 0 0 0 0 0 0 0 0 0 0 0 0
0 0 0 0 0 0 0 0 0 1 1 1 0 0 0 0 0 0 0 0 0 0 0 0 0 0 0 0 0 0 0 0 0 0 0 0 0 0 0 0 0 0 0
0 0 0 0 0 0 0 0 0 0 0 0 0 0 0 0 0 0 0 0 0 0 0 0 0 0 0 0 0 0 0 0 0 0 0 0 0 0 0 0 0 0 0
0 0 0 0 0 0 0 0 0 0 0 0 0 0 0 0 0 0 0 0 0 0 0 0 0 0 0 0 0 0 0 0 0 0 0 0 0 0 0 0 0 0 0
0 0 0 0 0 0 0 0 0 0 0 0 0 0 0 0 0 0 0 0 0 0 0 0 0 0 0 0 0 0 0 0 0 0 0 0 0 0 0 0 0 0 0
0 0 0 0 0 0 0 0 0 0 0 0 0 0 0 0 0 0 0 0 0 0 0 0 0 0 0 0 0 0 0 0 0 0 0 0 0 0 0 0 0 0 0
0 0 0 0 0 0 0 0 0 0 0 0 0 0 0 0 0 0 0 0 0 0 0 0 0 0 0 0 0 0 0 0 0 0 0 0 0 0 0 0 0 0 0
Wind_Speed
3 2 2 2 3 3 3 4 4 4 4 4 4 3 3 3 3 3 3 3 3 2 2 2 2 1 1 1 1 2 2 3 3 0 0 1 1 2 2 1 1 2 2
3 2 2 2 3 3 3 3 4 4 4 4 4 3 3 3 3 4 4 3 3 3 2 2 2 2 2 1 2 2 2 2 4 3 1 1 1 1 2 1 1 1 1
2 3 2 2 3 3 3 3 3 3 4 4 4 4 4 3 3 3 4 4 3 3 3 3 3 3 2 2 2 2 2 2 3 3 2 1 1 1 1 1 1 1 1
3 3 3 3 3 3 2 2 3 3 4 4 4 4 4 4 3 3 3 3 3 2 2 2 3 4 4 3 3 2 3 3 3 3 2 1 1 1 2 1 1 1 1
4 3 3 3 3 3 2 2 2 2 3 4 4 3 3 3 3 3 3 4 3 2 1 1 2 3 4 4 3 4 4 3 3 3 2 2 1 1 1 1 1 0 1
4 3 2 2 2 2 2 2 2 1 2 3 3 4 3 3 5 6 5 4 3 3 2 1 1 2 3 5 5 6 7 6 5 3 2 2 2 2 2 2 2 1 1
2 2 2 2 3 3 3 2 2 2 1 2 2 3 3 4 6 7 7 5 4 3 3 2 2 2 2 2 4 5 4 6 7 6 5 4 4 4 4 2 2 2 2
3 2 2 2 3 2 3 3 2 2 2 1 2 3 3 4 6 7 8 5 3 2 2 3 3 2 3 4 4 3 2 2 4 4 4 4 4 4 5 5 4 2 1
2 2 2 3 3 3 3 3 2 2 1 1 2 3 3 3 6 7 6 3 2 2 2 2 3 3 4 6 5 4 2 0 1 4 4 4 5 6 5 4 3 2 0
3 3 3 4 4 3 3 3 2 2 2 1 1 2 3 3 5 6 7 3 3 2 1 2 3 4 6 7 5 5 4 2 2 2 2 2 1 3 5 4 4 3 2
3 2 3 4 4 4 3 2 2 2 2 1 1 1 2 3 4 6 7 4 4 3 2 2 2 5 6 7 6 4 5 4 3 3 2 1 1 1 1 2 3 4 3
2 3 3 3 3 3 3 3 3 3 2 2 1 1 1 1 3 5 7 6 5 4 3 3 3 5 6 7 5 5 6 5 2 2 2 1 1 1 1 2 2 2 2
3 3 3 2 2 3 4 4 3 2 2 2 2 2 1 1 2 5 6 6 6 4 3 5 5 5 5 5 6 6 6 3 3 2 3 3 2 2 1 1 1 1 0
4 3 3 3 2 2 3 3 3 3 3 3 3 3 2 2 2 2 2 3 4 3 2 3 4 4 3 3 3 3 3 4 4 4 3 2 1 1 2 2 1 1 0
4 3 3 3 3 3 3 3 4 4 5 5 4 4 4 4 5 6 5 4 4 4 3 2 1 1 1 1 1 2 2 3 3 2 2 2 2 2 2 1 2 1 2
4 3 3 3 2 2 2 1 3 4 6 7 7 6 5 6 6 7 7 6 6 7 5 3 3 3 4 4 4 3 3 3 4 3 3 3 3 4 3 2 2 2 3
5 4 3 3 3 3 3 3 2 2 2 4 6 7 7 6 6 7 7 6 7 8 4 4 4 5 5 4 4 4 4 4 4 4 4 4 4 4 3 3 3 3 3
5 5 4 4 3 3 3 3 3 3 2 2 3 5 6 7 7 7 7 5 3 4 4 4 5 5 5 5 5 5 4 3 3 4 4 4 4 4 4 4 4 4 4
4 3 3 3 3 3 3 3 3 3 3 2 2 2 4 4 5 6 7 4 5 5 5 5 4 4 4 5 5 5 5 5 5 4 5 5 5 4 4 5 4 5 4
4 5 4 3 3 3 3 3 3 3 3 3 3 3 2 2 2 3 4 4 4 4 5 5 5 5 5 5 5 5 5 5 5 5 5 5 5 5 5 6 5 5 5
3 4 5 3 3 4 4 4 4 4 4 4 4 4 6 4 5 5 5 5 5 5 5 5 5 5 5 5 5 5 6 6 5 5 5 5 5 5 5 5 5 5 4
3 3 3 4 3 4 4 4 3 4 4 4 3 4 7 4 4 4 5 5 5 5 5 5 5 5 6 6 6 6 6 6 6 5 5 5 5 5 5 5 4 4 4
3 3 3 3 3 3 3 3 3 3 4 4 4 3 4 4 5 5 5 5 5 5 4 5 5 5 5 5 6 6 7 7 7 6 6 5 5 5 5 5 6 5 5
3 3 3 3 2 3 3 3 3 3 3 4 3 4 4 4 4 5 5 4 4 4 4 5 6 7 8 6 5 6 6 6 6 6 8 7 6 5 5 5 5 6 5
3 3 3 3 3 3 3 3 3 3 3 3 3 3 3 3 4 4 4 4 4 5 5 5 5 6 8 9 7 6 8 9 8 6 6 6 6 6 5 5 5 5 5
2 3 3 2 3 3 3 3 3 3 3 3 3 3 3 4 4 4 4 3 4 4 5 5 6 6 6 6 7 7 7 7 8 8 5 5 5 5 5 5 6 5 5
Wind_Direction
181 183 184 189 178 165 175 188 187 184 175 172 173 168 164 165 157 154 163 158 150 142 133 138 144 141 132 130 130 119 115 122 132 163 24 107 114 119 96 73 89 79 99
177 163 169 175 163 164 176 189 183 181 179 179 175 169 172 173 166 163 176 170 162 160 163 142 157 152 135 135 134 129 126 126 132 138 108 91 114 146 138 123 117 124 120
159 151 151 158 155 167 177 176 173 173 173 176 177 179 174 171 168 170 171 168 169 170 167 161 170 152 151 150 144 136 132 119 108 126 127 87 77 101 88 80 81 41 98
160 153 160 173 171 178 181 171 175 179 174 179 181 179 173 168 169 173 162 156 156 156 163 169 169 165 170 166 152 147 132 117 109 117 120 110 96 81 99 102 59 28 17
156 157 177 183 173 165 163 158 156 172 183 178 164 167 167 166 174 170 163 153 151 147 148 167 169 163 161 160 152 154 142 132 125 125 133 113 110 124 165 167 136 71 1
156 166 171 164 161 156 150 132 129 138 159 156 164 170 178 188 176 170 158 148 148 150 158 169 159 153 141 144 142 148 149 150 154 150 158 167 190 181 156 148 134 118 288
148 147 148 163 164 163 152 129 134 139 123 144 171 167 175 184 170 161 156 149 152 166 172 170 164 143 130 132 126 127 142 154 158 162 164 189 188 189 160 148 152 155 194
154 151 154 165 169 160 144 148 157 146 138 154 168 169 169 179 164 156 151 147 149 166 173 169 165 168 155 144 130 122 130 162 179 171 177 188 182 175 174 174 170 146 100
176 183 186 184 174 160 159 164 163 148 155 175 182 175 174 182 164 156 148 147 153 180 184 173 169 172 159 143 139 140 135 151 138 148 148 150 150 152 146 123 119 115 171
202 202 199 188 174 171 179 175 165 161 178 182 193 186 182 183 171 161 155 153 157 172 164 179 171 163 156 149 151 153 159 190 141 115 100 96 143 151 152 163 165 156 161
212 198 191 186 182 177 173 166 158 156 156 168 179 191 188 186 179 173 167 164 167 166 172 192 196 174 165 161 160 166 175 164 156 146 132 105 93 125 169 178 174 166 170
194 192 185 186 187 169 161 167 163 156 157 165 160 180 227 210 190 185 179 176 167 166 184 199 194 177 173 169 171 172 156 139 130 134 141 177 196 209 206 189 186 183 185
188 189 191 186 178 165 167 171 164 159 166 182 184 198 217 224 201 187 183 181 175 173 186 188 184 177 175 176 180 172 157 147 148 159 189 212 216 210 171 144 133 131 26
183 190 188 182 182 176 176 175 177 181 186 195 201 208 218 215 207 196 191 185 178 176 176 170 165 165 166 168 169 174 172 175 177 191 202 205 179 161 170 167 162 158 180
183 188 188 188 187 187 195 200 200 205 197 199 209 204 199 215 218 200 187 191 193 185 153 127 134 150 172 189 192 192 185 181 194 197 187 184 184 184 196 182 167 160 188
182 188 190 189 188 189 199 244 253 231 223 217 214 211 219 217 207 200 202 198 186 166 149 173 194 200 202 205 205 209 206 207 206 197 194 194 196 198 201 193 183 186 208
191 193 191 189 191 195 195 196 237 299 284 237 226 222 221 212 204 197 199 196 184 168 178 201 206 210 212 212 210 208 213 214 202 197 202 205 202 200 197 200 203 209 222
197 198 193 193 195 198 202 206 204 209 241 272 257 228 219 214 207 196 181 160 179 192 211 213 214 214 213 214 214 215 215 208 203 207 210 208 203 199 202 207 209 213 222
199 197 197 196 198 200 203 208 213 214 220 237 253 248 222 217 207 193 174 186 198 209 217 222 221 216 214 215 216 215 212 212 211 209 211 211 206 204 211 214 214 218 218
203 212 204 200 202 204 205 209 216 217 221 223 224 222 190 169 191 201 205 213 215 217 218 221 221 218 214 214 215 214 214 216 213 212 213 211 208 206 211 211 211 212 217
201 207 211 212 211 211 210 213 215 215 222 228 229 218 197 199 210 213 214 217 221 223 222 222 222 217 216 215 214 215 217 219 216 214 213 211 206 209 213 212 213 213 212
196 201 204 209 214 214 214 214 213 217 225 231 235 224 210 212 217 221 224 228 229 228 223 219 222 220 215 213 213 214 218 221 218 215 216 215 211 210 207 208 211 211 208
192 197 206 218 217 215 217 217 216 219 224 231 223 215 208 218 225 226 229 231 231 233 230 223 225 228 225 221 218 215 217 219 217 212 211 212 211 209 207 209 209 208 211
191 195 202 212 214 209 214 221 222 223 225 228 225 217 214 218 227 233 235 235 232 233 231 227 227 230 229 227 224 222 223 221 214 210 207 209 209 207 206 207 208 208 210
186 192 198 206 209 211 216 223 226 227 228 232 228 226 227 228 233 237 240 242 240 238 237 233 230 229 229 227 226 227 224 217 214 209 205 205 206 204 201 205 208 209 213
197 203 205 206 207 210 215 220 225 230 230 235 236 231 229 232 237 240 240 240 244 246 245 238 236 234 232 229 226 222 219 214 210 207 205 202 202 204 199 206 207 208 209